| time (UTC) | temp C | wind direction | speed KPH | gust KPH | rain 1hr cm | rain 24hr cm | rain mn cm | humidity % | barometer mb |
| 20260510182904 | 25 | 252 | 4.8 | 12.9 | 0.00 | 0.00 | 0.00 | 58 | 1013.6 |
| 20260510182633 | 25 | 226 | 4.8 | 9.7 | 0.00 | 0.00 | 0.00 | 58 | 1013.6 |
| 20260510181903 | 25 | 222 | 4.8 | 12.9 | 0.00 | 0.00 | 0.00 | 57 | 1013.7 |
| 20260510181402 | 25 | 222 | 3.2 | 12.9 | 0.00 | 0.00 | 0.00 | 60 | 1013.7 |
| 20260510180900 | 24 | 220 | 3.2 | 9.7 | 0.00 | 0.00 | 0.00 | 60 | 1013.7 |
| 20260510180400 | 24 | 219 | 3.2 | 11.3 | 0.00 | 0.00 | 0.00 | 61 | 1013.8 |
| 20260510175900 | 23 | 212 | 4.8 | 11.3 | 0.00 | 0.00 | 0.00 | 63 | 1013.7 |
| 20260510175413 | 23 | 210 | 3.2 | 8.0 | 0.00 | 0.00 | 0.00 | 64 | 1013.8 |
| 20260510174900 | 23 | 209 | 3.2 | 11.3 | 0.00 | 0.00 | 0.00 | 65 | 1013.8 |
| 20260510174357 | 23 | 209 | 3.2 | 11.3 | 0.00 | 0.00 | 0.00 | 67 | 1013.9 |
| 20260510173857 | 22 | 228 | 3.2 | 9.7 | 0.00 | 0.00 | 0.00 | 68 | 1013.8 |
| 20260510173358 | 22 | 228 | 3.2 | 8.0 | 0.00 | 0.00 | 0.00 | 70 | 1013.9 |
| 20260510172858 | 21 | 228 | 3.2 | 8.0 | 0.00 | 0.00 | 0.00 | 73 | 1013.8 |
| 20260510172357 | 21 | 227 | 3.2 | 9.7 | 0.00 | 0.00 | 0.00 | 74 | 1013.8 |
| 20260510172129 | 21 | 227 | 1.6 | 9.7 | 0.00 | 0.00 | 0.00 | 77 | 1013.8 |
| 20260510171628 | 20 | 227 | 0.0 | 4.8 | 0.00 | 0.00 | 0.00 | 79 | 1013.9 |
| 20260510170855 | 20 | 227 | 1.6 | 6.4 | 0.00 | 0.00 | 0.00 | 81 | 1013.9 |
| 20260510170356 | 19 | 227 | 1.6 | 6.4 | 0.00 | 0.00 | 0.00 | 83 | 1013.8 |
| 20260510170120 | 19 | 227 | 1.6 | 8.0 | 0.00 | 0.00 | 0.00 | 84 | 1013.8 |
| 20260510165622 | 18 | 227 | 1.6 | 8.0 | 0.00 | 0.00 | 0.00 | 84 | 1013.8 |
| 20260510164850 | 18 | 227 | 3.2 | 6.4 | 0.00 | 0.00 | 0.00 | 82 | 1013.8 |
| 20260510164349 | 18 | 227 | 3.2 | 8.0 | 0.00 | 0.00 | 0.00 | 81 | 1013.8 |
| 20260510163849 | 17 | 227 | 3.2 | 8.0 | 0.00 | 0.00 | 0.00 | 78 | 1013.8 |
| 20260510163348 | 17 | 227 | 1.6 | 6.4 | 0.00 | 0.00 | 0.00 | 76 | 1013.8 |
| 20260510162848 | 17 | 227 | 0.0 | 3.2 | 0.00 | 0.00 | 0.00 | 74 | 1013.8 |
| 20260510162349 | 17 | 227 | 0.0 | 6.4 | 0.00 | 0.00 | 0.00 | 74 | 1013.8 |
| 20260510161845 | 16 | 227 | 1.6 | 6.4 | 0.00 | 0.00 | 0.00 | 74 | 1013.8 |
| 20260510161618 | 16 | 227 | 1.6 | 6.4 | 0.00 | 0.00 | 0.00 | 74 | 1013.8 |
| 20260510160339 | 16 | 227 | 1.6 | 6.4 | 0.00 | 0.00 | 0.00 | 75 | 1013.8 |
| 20260510160111 | 16 | 227 | 1.6 | 6.4 | 0.00 | 0.00 | 0.00 | 75 | 1013.7 |
| 20260510155612 | 16 | 227 | 1.6 | 3.2 | 0.00 | 0.00 | 0.00 | 75 | 1013.8 |
| 20260510154837 | 16 | 227 | 1.6 | 4.8 | 0.00 | 0.00 | 0.00 | 75 | 1013.8 |
| 20260510154337 | 15 | 227 | 0.0 | 4.8 | 0.00 | 0.00 | 0.00 | 75 | 1013.8 |
| 20260510153836 | 15 | 227 | 1.6 | 6.4 | 0.00 | 0.00 | 0.00 | 76 | 1013.9 |
| 20260510153335 | 15 | 227 | 1.6 | 6.4 | 0.00 | 0.00 | 0.00 | 76 | 1013.8 |
| 20260510153108 | 15 | 227 | 1.6 | 6.4 | 0.00 | 0.00 | 0.00 | 76 | 1013.9 |
| 20260510152337 | 15 | 227 | 3.2 | 6.4 | 0.00 | 0.00 | 0.00 | 77 | 1013.9 |
| 20260510151830 | 15 | 227 | 1.6 | 6.4 | 0.00 | 0.00 | 0.00 | 76 | 1013.9 |
| 20260510151330 | 15 | 227 | 0.0 | 6.4 | 0.00 | 0.00 | 0.00 | 76 | 1013.9 |
| 20260510151113 | 15 | 227 | 0.0 | 6.4 | 0.00 | 0.00 | 0.00 | 77 | 1013.9 |
| 20260510150329 | 15 | 227 | 0.0 | 4.8 | 0.00 | 0.00 | 0.00 | 77 | 1013.9 |
| 20260510145825 | 15 | 227 | 1.6 | 4.8 | 0.00 | 0.00 | 0.00 | 77 | 1013.9 |
| 20260510145557 | 15 | 227 | 1.6 | 4.8 | 0.00 | 0.00 | 0.00 | 77 | 1013.8 |
| 20260510144826 | 15 | 227 | 1.6 | 4.8 | 0.00 | 0.00 | 0.00 | 77 | 1013.9 |
| 20260510144326 | 15 | 227 | 1.6 | 4.8 | 0.00 | 0.00 | 0.00 | 77 | 1013.9 |
| 20260510143820 | 15 | 227 | 0.0 | 3.2 | 0.00 | 0.00 | 0.00 | 77 | 1013.8 |
| 20260510143317 | 15 | 227 | 1.6 | 4.8 | 0.00 | 0.00 | 0.00 | 78 | 1013.8 |
| 20260510142819 | 15 | 231 | 1.6 | 4.8 | 0.00 | 0.00 | 0.00 | 78 | 1013.8 |
| 20260510142549 | 15 | 231 | 0.0 | 3.2 | 0.00 | 0.00 | 0.00 | 78 | 1013.7 |
| 20260510141816 | 15 | 231 | 0.0 | 3.2 | 0.00 | 0.00 | 0.00 | 78 | 1013.7 |
| 20260510141314 | 15 | 231 | 0.0 | 3.2 | 0.00 | 0.00 | 0.00 | 78 | 1013.7 |
| 20260510140809 | 15 | 231 | 0.0 | 0.0 | 0.00 | 0.00 | 0.00 | 79 | 1013.7 |
| 20260510140310 | 15 | 231 | 0.0 | 0.0 | 0.00 | 0.00 | 0.00 | 79 | 1013.6 |
| 20260510135810 | 15 | 231 | 1.6 | 3.2 | 0.00 | 0.00 | 0.00 | 79 | 1013.5 |
| 20260510135306 | 15 | 231 | 1.6 | 3.2 | 0.00 | 0.00 | 0.00 | 80 | 1013.5 |
| 20260510135034 | 15 | 231 | 0.0 | 3.2 | 0.00 | 0.00 | 0.00 | 80 | 1013.5 |
| 20260510134302 | 15 | 229 | 1.6 | 8.0 | 0.00 | 0.00 | 0.00 | 80 | 1013.4 |
| 20260510134035 | 15 | 229 | 3.2 | 8.0 | 0.00 | 0.00 | 0.00 | 80 | 1013.4 |
| 20260510133303 | 15 | 229 | 3.2 | 4.8 | 0.00 | 0.00 | 0.00 | 80 | 1013.3 |
| 20260510132802 | 15 | 229 | 1.6 | 4.8 | 0.00 | 0.00 | 0.00 | 80 | 1013.3 |
| 20260510132305 | 14 | 229 | 3.2 | 6.4 | 0.00 | 0.00 | 0.00 | 81 | 1013.2 |
| 20260510131804 | 14 | 229 | 3.2 | 8.0 | 0.00 | 0.00 | 0.00 | 81 | 1013.2 |
| 20260510131301 | 14 | 229 | 3.2 | 8.0 | 0.00 | 0.00 | 0.00 | 81 | 1013.2 |
| 20260510130759 | 14 | 229 | 1.6 | 6.4 | 0.00 | 0.00 | 0.00 | 81 | 1013.2 |
| 20260510130259 | 14 | 229 | 1.6 | 6.4 | 0.00 | 0.00 | 0.00 | 81 | 1013.1 |
| 20260510125756 | 14 | 229 | 1.6 | 6.4 | 0.00 | 0.00 | 0.00 | 82 | 1013.0 |
| 20260510125255 | 14 | 229 | 3.2 | 6.4 | 0.00 | 0.00 | 0.00 | 82 | 1013.0 |
| 20260510125029 | 14 | 229 | 4.8 | 8.0 | 0.00 | 0.00 | 0.00 | 83 | 1013.0 |
| 20260510124252 | 14 | 229 | 4.8 | 8.0 | 0.00 | 0.00 | 0.00 | 83 | 1013.0 |
| 20260510123751 | 14 | 229 | 4.8 | 9.7 | 0.00 | 0.00 | 0.00 | 83 | 1013.0 |
| 20260510123252 | 14 | 229 | 3.2 | 9.7 | 0.00 | 0.00 | 0.00 | 83 | 1013.0 |
| 20260510122746 | 14 | 229 | 1.6 | 6.4 | 0.00 | 0.00 | 0.00 | 84 | 1013.0 |
| 20260510122246 | 14 | 229 | 0.0 | 0.0 | 0.00 | 0.00 | 0.00 | 84 | 1013.0 |
| 20260510121747 | 14 | 229 | 1.6 | 4.8 | 0.00 | 0.00 | 0.00 | 84 | 1013.0 |
| 20260510121511 | 14 | 229 | 1.6 | 6.4 | 0.00 | 0.00 | 0.00 | 84 | 1013.0 |
| 20260510120737 | 14 | 229 | 0.0 | 6.4 | 0.00 | 0.00 | 0.00 | 84 | 1012.9 |
| 20260510120237 | 14 | 229 | 0.0 | 0.0 | 0.00 | 0.00 | 0.00 | 84 | 1012.9 |
| 20260510115234 | 14 | 229 | 0.0 | 0.0 | 0.00 | 0.00 | 0.00 | 84 | 1012.9 |
| 20260510114733 | 14 | 229 | 0.0 | 0.0 | 0.00 | 0.00 | 0.00 | 84 | 1012.8 |
| 20260510114225 | 14 | 229 | 0.0 | 0.0 | 0.00 | 0.00 | 0.00 | 85 | 1012.8 |
| 20260510113723 | 14 | 229 | 0.0 | 0.0 | 0.00 | 0.00 | 0.00 | 84 | 1012.8 |
| 20260510113224 | 14 | 229 | 0.0 | 0.0 | 0.00 | 0.00 | 0.00 | 85 | 1012.9 |
| 20260510112721 | 14 | 229 | 0.0 | 0.0 | 0.00 | 0.00 | 0.00 | 85 | 1012.9 |
| 20260510112220 | 14 | 229 | 0.0 | 0.0 | 0.00 | 0.00 | 0.00 | 85 | 1012.9 |
| 20260510111721 | 14 | 229 | 0.0 | 0.0 | 0.00 | 0.00 | 0.00 | 85 | 1012.9 |
| 20260510111217 | 14 | 229 | 1.6 | 4.8 | 0.00 | 0.00 | 0.00 | 85 | 1012.9 |
| 20260510110717 | 14 | 229 | 1.6 | 4.8 | 0.00 | 0.00 | 0.00 | 85 | 1012.9 |
| 20260510110447 | 14 | 229 | 1.6 | 3.2 | 0.00 | 0.00 | 0.00 | 85 | 1012.8 |
| 20260510105713 | 14 | 229 | 1.6 | 4.8 | 0.00 | 0.00 | 0.00 | 85 | 1012.9 |
| 20260510105213 | 14 | 229 | 1.6 | 4.8 | 0.00 | 0.00 | 0.00 | 85 | 1012.9 |
| 20260510104714 | 14 | 229 | 0.0 | 4.8 | 0.00 | 0.00 | 0.00 | 85 | 1013.0 |
| 20260510104445 | 14 | 229 | 0.0 | 0.0 | 0.00 | 0.00 | 0.00 | 85 | 1012.9 |
| 20260510103713 | 14 | 229 | 0.0 | 0.0 | 0.00 | 0.00 | 0.00 | 85 | 1012.9 |
| 20260510103444 | 15 | 229 | 0.0 | 0.0 | 0.00 | 0.00 | 0.00 | 85 | 1012.9 |
| 20260510102709 | 15 | 229 | 0.0 | 0.0 | 0.00 | 0.00 | 0.00 | 85 | 1012.9 |
| 20260510102207 | 15 | 229 | 0.0 | 0.0 | 0.00 | 0.00 | 0.00 | 85 | 1012.9 |
| 20260510101709 | 15 | 229 | 0.0 | 0.0 | 0.00 | 0.00 | 0.00 | 85 | 1012.9 |
| 20260510101205 | 15 | 229 | 0.0 | 0.0 | 0.00 | 0.00 | 0.00 | 85 | 1012.9 |
| 20260510100705 | 15 | 229 | 0.0 | 0.0 | 0.00 | 0.00 | 0.00 | 85 | 1012.9 |
| 20260510100204 | 15 | 229 | 0.0 | 0.0 | 0.00 | 0.00 | 0.00 | 85 | 1012.9 |
| 20260510095701 | 15 | 229 | 0.0 | 0.0 | 0.00 | 0.00 | 0.00 | 85 | 1013.0 |
| 20260510095200 | 15 | 229 | 0.0 | 0.0 | 0.00 | 0.00 | 0.00 | 85 | 1013.0 |
| 20260510094157 | 15 | 229 | 0.0 | 0.0 | 0.00 | 0.00 | 0.00 | 85 | 1012.9 |
| 20260510093657 | 15 | 229 | 0.0 | 0.0 | 0.00 | 0.00 | 0.00 | 85 | 1013.0 |
| 20260510093153 | 15 | 229 | 0.0 | 0.0 | 0.00 | 0.00 | 0.00 | 85 | 1012.9 |
| 20260510092654 | 15 | 229 | 0.0 | 0.0 | 0.00 | 0.00 | 0.00 | 85 | 1013.0 |
| 20260510092154 | 15 | 229 | 0.0 | 0.0 | 0.00 | 0.00 | 0.00 | 85 | 1013.0 |
| 20260510091655 | 15 | 229 | 0.0 | 0.0 | 0.00 | 0.00 | 0.00 | 85 | 1013.1 |
| 20260510091153 | 15 | 229 | 0.0 | 0.0 | 0.00 | 0.00 | 0.00 | 85 | 1013.1 |
| 20260510090652 | 15 | 229 | 0.0 | 0.0 | 0.00 | 0.00 | 0.00 | 85 | 1013.1 |
| 20260510090150 | 15 | 229 | 0.0 | 0.0 | 0.00 | 0.00 | 0.00 | 85 | 1013.0 |
| 20260510085920 | 15 | 229 | 0.0 | 0.0 | 0.00 | 0.00 | 0.00 | 85 | 1013.1 |
| 20260510085150 | 15 | 229 | 0.0 | 0.0 | 0.00 | 0.00 | 0.00 | 85 | 1013.1 |
| 20260510084650 | 15 | 229 | 0.0 | 0.0 | 0.00 | 0.00 | 0.00 | 85 | 1013.0 |
| 20260510084150 | 15 | 229 | 0.0 | 0.0 | 0.00 | 0.00 | 0.00 | 85 | 1013.1 |
| 20260510083647 | 15 | 229 | 0.0 | 0.0 | 0.00 | 0.00 | 0.00 | 85 | 1013.2 |
| 20260510083145 | 15 | 229 | 0.0 | 0.0 | 0.00 | 0.00 | 0.00 | 85 | 1013.1 |
| 20260510082646 | 15 | 229 | 0.0 | 0.0 | 0.00 | 0.00 | 0.00 | 85 | 1013.2 |
| 20260510082144 | 15 | 229 | 0.0 | 0.0 | 0.00 | 0.00 | 0.00 | 85 | 1013.2 |
| 20260510081642 | 15 | 229 | 0.0 | 0.0 | 0.00 | 0.00 | 0.00 | 84 | 1013.2 |
| 20260510081413 | 15 | 229 | 1.6 | 3.2 | 0.00 | 0.00 | 0.00 | 84 | 1013.3 |
| 20260510080639 | 15 | 229 | 1.6 | 4.8 | 0.00 | 0.00 | 0.00 | 84 | 1013.4 |
| 20260510080141 | 16 | 229 | 1.6 | 4.8 | 0.00 | 0.00 | 0.00 | 84 | 1013.4 |
| 20260510075640 | 16 | 229 | 0.0 | 3.2 | 0.00 | 0.00 | 0.00 | 84 | 1013.4 |
| 20260510075135 | 16 | 229 | 0.0 | 3.2 | 0.00 | 0.00 | 0.00 | 84 | 1013.4 |
| 20260510074636 | 16 | 229 | 0.0 | 1.6 | 0.00 | 0.00 | 0.00 | 84 | 1013.4 |
| 20260510074131 | 16 | 229 | 0.0 | 3.2 | 0.00 | 0.00 | 0.00 | 84 | 1013.4 |
| 20260510073631 | 16 | 229 | 0.0 | 3.2 | 0.00 | 0.00 | 0.00 | 84 | 1013.4 |
| 20260510073132 | 16 | 229 | 0.0 | 3.2 | 0.00 | 0.00 | 0.00 | 83 | 1013.5 |
| 20260510072902 | 16 | 229 | 1.6 | 4.8 | 0.00 | 0.00 | 0.00 | 83 | 1013.4 |
| 20260510072131 | 16 | 229 | 1.6 | 4.8 | 0.00 | 0.00 | 0.00 | 83 | 1013.5 |
| 20260510071904 | 16 | 229 | 1.6 | 3.2 | 0.00 | 0.00 | 0.00 | 83 | 1013.5 |
| 20260510071130 | 16 | 229 | 1.6 | 3.2 | 0.00 | 0.00 | 0.00 | 83 | 1013.6 |
| 20260510070632 | 16 | 229 | 1.6 | 4.8 | 0.00 | 0.00 | 0.00 | 83 | 1013.5 |
| 20260510070401 | 16 | 229 | 1.6 | 6.4 | 0.00 | 0.00 | 0.00 | 82 | 1013.5 |
| 20260510065632 | 16 | 229 | 3.2 | 6.4 | 0.00 | 0.00 | 0.00 | 82 | 1013.6 |
| 20260510065356 | 16 | 229 | 3.2 | 6.4 | 0.00 | 0.00 | 0.00 | 82 | 1013.6 |
| 20260510064857 | 16 | 229 | 3.2 | 6.4 | 0.00 | 0.00 | 0.00 | 82 | 1013.6 |
| 20260510064121 | 16 | 229 | 3.2 | 8.0 | 0.00 | 0.00 | 0.00 | 82 | 1013.6 |
| 20260510063351 | 17 | 229 | 3.2 | 8.0 | 0.00 | 0.00 | 0.00 | 82 | 1013.6 |
| 20260510062847 | 17 | 229 | 4.8 | 8.0 | 0.00 | 0.00 | 0.00 | 81 | 1013.6 |
| 20260510062116 | 17 | 229 | 4.8 | 8.0 | 0.00 | 0.00 | 0.00 | 81 | 1013.6 |
| 20260510061615 | 17 | 229 | 4.8 | 9.7 | 0.00 | 0.00 | 0.00 | 81 | 1013.6 |
| 20260510061115 | 17 | 229 | 3.2 | 9.7 | 0.00 | 0.00 | 0.00 | 81 | 1013.7 |
| 20260510060609 | 17 | 229 | 3.2 | 8.0 | 0.00 | 0.00 | 0.00 | 80 | 1013.6 |
| 20260510060112 | 17 | 229 | 3.2 | 8.0 | 0.00 | 0.00 | 0.00 | 80 | 1013.6 |
| 20260510055611 | 17 | 229 | 4.8 | 9.7 | 0.00 | 0.00 | 0.00 | 80 | 1013.5 |
| 20260510055109 | 17 | 229 | 4.8 | 11.3 | 0.00 | 0.00 | 0.00 | 80 | 1013.5 |
| 20260510054604 | 17 | 229 | 4.8 | 11.3 | 0.00 | 0.00 | 0.00 | 80 | 1013.5 |
| 20260510054102 | 17 | 229 | 3.2 | 8.0 | 0.00 | 0.00 | 0.00 | 79 | 1013.5 |
| 20260510053558 | 17 | 229 | 3.2 | 6.4 | 0.00 | 0.00 | 0.00 | 79 | 1013.5 |
| 20260510053057 | 17 | 229 | 3.2 | 8.0 | 0.00 | 0.00 | 0.00 | 79 | 1013.6 |
| 20260510052557 | 17 | 229 | 4.8 | 9.7 | 0.00 | 0.00 | 0.00 | 79 | 1013.6 |
| 20260510052324 | 17 | 229 | 4.8 | 9.7 | 0.00 | 0.00 | 0.00 | 78 | 1013.5 |
| 20260510051548 | 18 | 229 | 4.8 | 9.7 | 0.00 | 0.00 | 0.00 | 78 | 1013.4 |
| 20260510051049 | 18 | 229 | 4.8 | 8.0 | 0.00 | 0.00 | 0.00 | 77 | 1013.5 |
| 20260510050550 | 18 | 229 | 6.4 | 9.7 | 0.00 | 0.00 | 0.00 | 77 | 1013.4 |
| 20260510050059 | 18 | 229 | 6.4 | 11.3 | 0.00 | 0.00 | 0.00 | 76 | 1013.3 |
| 20260510045546 | 18 | 229 | 6.4 | 11.3 | 0.00 | 0.00 | 0.00 | 76 | 1013.3 |
| 20260510045315 | 18 | 230 | 6.4 | 11.3 | 0.00 | 0.00 | 0.00 | 75 | 1013.3 |
| 20260510044545 | 18 | 229 | 6.4 | 11.3 | 0.00 | 0.00 | 0.00 | 75 | 1013.3 |
| 20260510044042 | 18 | 230 | 4.8 | 11.3 | 0.00 | 0.00 | 0.00 | 75 | 1013.2 |
| 20260510043815 | 18 | 231 | 4.8 | 11.3 | 0.00 | 0.00 | 0.00 | 75 | 1013.1 |
| 20260510043036 | 19 | 231 | 6.4 | 11.3 | 0.00 | 0.00 | 0.00 | 74 | 1013.1 |
| 20260510042036 | 19 | 223 | 6.4 | 14.5 | 0.00 | 0.00 | 0.00 | 74 | 1012.9 |
| 20260510041536 | 19 | 222 | 8.0 | 14.5 | 0.00 | 0.00 | 0.00 | 73 | 1012.9 |
| 20260510041036 | 19 | 222 | 8.0 | 14.5 | 0.00 | 0.00 | 0.00 | 73 | 1012.7 |
| 20260510040533 | 19 | 223 | 8.0 | 12.9 | 0.00 | 0.00 | 0.00 | 72 | 1012.7 |
| 20260510040034 | 19 | 227 | 9.7 | 14.5 | 0.00 | 0.00 | 0.00 | 72 | 1012.6 |
| 20260510035534 | 20 | 232 | 9.7 | 14.5 | 0.00 | 0.00 | 0.00 | 71 | 1012.5 |
| 20260510035306 | 20 | 221 | 8.0 | 12.9 | 0.00 | 0.00 | 0.00 | 70 | 1012.6 |
| 20260510034534 | 20 | 219 | 6.4 | 12.9 | 0.00 | 0.00 | 0.00 | 70 | 1012.5 |
| 20260510034035 | 20 | 222 | 6.4 | 12.9 | 0.00 | 0.00 | 0.00 | 69 | 1012.3 |
| 20260510033805 | 20 | 222 | 6.4 | 12.9 | 0.00 | 0.00 | 0.00 | 68 | 1012.2 |
| 20260510033034 | 20 | 222 | 6.4 | 11.3 | 0.00 | 0.00 | 0.00 | 67 | 1012.2 |
| 20260510032535 | 21 | 223 | 8.0 | 11.3 | 0.00 | 0.00 | 0.00 | 67 | 1012.1 |
| 20260510032033 | 21 | 223 | 9.7 | 16.1 | 0.00 | 0.00 | 0.00 | 67 | 1012.1 |
| 20260510031532 | 21 | 222 | 9.7 | 16.1 | 0.00 | 0.00 | 0.00 | 66 | 1012.0 |
| 20260510031032 | 21 | 223 | 9.7 | 16.1 | 0.00 | 0.00 | 0.00 | 65 | 1011.9 |
| 20260510030532 | 21 | 225 | 8.0 | 16.1 | 0.00 | 0.00 | 0.00 | 64 | 1011.8 |
| 20260510030030 | 21 | 221 | 8.0 | 16.1 | 0.00 | 0.00 | 0.00 | 63 | 1011.8 |
| 20260510025802 | 22 | 219 | 9.7 | 17.7 | 0.00 | 0.00 | 0.00 | 63 | 1011.7 |
| 20260510025023 | 22 | 219 | 11.3 | 19.3 | 0.00 | 0.00 | 0.00 | 62 | 1011.7 |
| 20260510024525 | 22 | 217 | 9.7 | 19.3 | 0.00 | 0.00 | 0.00 | 61 | 1011.6 |
| 20260510024024 | 22 | 227 | 8.0 | 14.5 | 0.00 | 0.00 | 0.00 | 60 | 1011.5 |
| 20260510023025 | 23 | 222 | 9.7 | 17.7 | 0.00 | 0.00 | 0.00 | 58 | 1011.4 |
| 20260510022523 | 23 | 225 | 9.7 | 20.9 | 0.00 | 0.00 | 0.00 | 57 | 1011.4 |
| 20260510022023 | 23 | 217 | 9.7 | 20.9 | 0.00 | 0.00 | 0.00 | 56 | 1011.3 |
| 20260510021520 | 24 | 221 | 11.3 | 22.5 | 0.00 | 0.00 | 0.00 | 54 | 1011.3 |
| 20260510021018 | 24 | 228 | 12.9 | 22.5 | 0.00 | 0.00 | 0.00 | 53 | 1011.2 |
| 20260510020801 | 25 | 226 | 12.9 | 19.3 | 0.00 | 0.00 | 0.00 | 52 | 1011.2 |
| 20260510015516 | 25 | 221 | 12.9 | 19.3 | 0.00 | 0.00 | 0.00 | 50 | 1011.2 |
| 20260510015016 | 25 | 220 | 12.9 | 19.3 | 0.00 | 0.00 | 0.00 | 50 | 1011.1 |
| 20260510014517 | 25 | 219 | 12.9 | 19.3 | 0.00 | 0.00 | 0.00 | 49 | 1011.0 |
| 20260510014012 | 25 | 219 | 12.9 | 20.9 | 0.00 | 0.00 | 0.00 | 48 | 1011.0 |
| 20260510013512 | 26 | 217 | 12.9 | 22.5 | 0.00 | 0.00 | 0.00 | 46 | 1011.0 |
| 20260510013012 | 26 | 215 | 11.3 | 22.5 | 0.00 | 0.00 | 0.00 | 46 | 1011.0 |
| 20260510012513 | 26 | 223 | 11.3 | 17.7 | 0.00 | 0.00 | 0.00 | 46 | 1010.9 |
| 20260510012240 | 27 | 230 | 9.7 | 17.7 | 0.00 | 0.00 | 0.00 | 45 | 1010.8 |
| 20260510011509 | 27 | 226 | 11.3 | 27.4 | 0.00 | 0.00 | 0.00 | 43 | 1010.8 |
| 20260510011008 | 27 | 218 | 12.9 | 27.4 | 0.00 | 0.00 | 0.00 | 43 | 1010.8 |
| 20260510010737 | 27 | 227 | 11.3 | 25.7 | 0.00 | 0.00 | 0.00 | 42 | 1010.8 |
| 20260510010005 | 27 | 236 | 12.9 | 25.7 | 0.00 | 0.00 | 0.00 | 42 | 1010.8 |
| 20260510005504 | 27 | 227 | 12.9 | 22.5 | 0.00 | 0.00 | 0.00 | 42 | 1010.7 |
| 20260510005235 | 27 | 220 | 14.5 | 24.1 | 0.00 | 0.00 | 0.00 | 41 | 1010.7 |
| 20260510004502 | 27 | 232 | 16.1 | 27.4 | 0.00 | 0.00 | 0.00 | 42 | 1010.7 |
| 20260510004232 | 27 | 221 | 16.1 | 27.4 | 0.00 | 0.00 | 0.00 | 41 | 1010.6 |
| 20260510003500 | 28 | 214 | 12.9 | 24.1 | 0.00 | 0.00 | 0.00 | 41 | 1010.6 |
| 20260510003231 | 28 | 232 | 14.5 | 25.7 | 0.00 | 0.00 | 0.00 | 41 | 1010.6 |
| 20260510002730 | 28 | 222 | 14.5 | 25.7 | 0.00 | 0.00 | 0.00 | 42 | 1010.6 |
| 20260510001958 | 28 | 221 | 12.9 | 25.7 | 0.00 | 0.00 | 0.00 | 41 | 1010.6 |
| 20260510001458 | 28 | 227 | 14.5 | 25.7 | 0.00 | 0.00 | 0.00 | 43 | 1010.6 |
| 20260510001011 | 28 | 240 | 16.1 | 25.7 | 0.00 | 0.00 | 0.00 | 41 | 1010.5 |
| 20260510000458 | 28 | 209 | 14.5 | 25.7 | 0.00 | 0.00 | 0.00 | 41 | 1010.6 |
| 20260509235957 | 29 | 257 | 14.5 | 25.7 | 0.00 | 0.00 | 0.00 | 41 | 1010.6 |
| 20260509235454 | 29 | 216 | 12.9 | 25.7 | 0.00 | 0.00 | 0.00 | 40 | 1010.7 |
| 20260509234955 | 29 | 213 | 12.9 | 24.1 | 0.00 | 0.00 | 0.00 | 41 | 1010.6 |
| 20260509234450 | 30 | 227 | 12.9 | 24.1 | 0.00 | 0.00 | 0.00 | 41 | 1010.6 |
| 20260509233950 | 30 | 225 | 11.3 | 24.1 | 0.00 | 0.00 | 0.00 | 39 | 1010.7 |
| 20260509233451 | 30 | 226 | 11.3 | 22.5 | 0.00 | 0.00 | 0.00 | 41 | 1010.6 |
| 20260509232944 | 30 | 219 | 11.3 | 22.5 | 0.00 | 0.00 | 0.00 | 37 | 1010.6 |
| 20260509232444 | 30 | 263 | 11.3 | 20.9 | 0.00 | 0.00 | 0.00 | 37 | 1010.7 |
| 20260509232214 | 30 | 216 | 11.3 | 22.5 | 0.00 | 0.00 | 0.00 | 39 | 1010.7 |
| 20260509231443 | 30 | 225 | 11.3 | 22.5 | 0.00 | 0.00 | 0.00 | 37 | 1010.6 |
| 20260509230943 | 30 | 225 | 11.3 | 20.9 | 0.00 | 0.00 | 0.00 | 37 | 1010.7 |
| 20260509230445 | 30 | 253 | 11.3 | 22.5 | 0.00 | 0.00 | 0.00 | 38 | 1010.6 |
| 20260509225944 | 30 | 248 | 11.3 | 22.5 | 0.00 | 0.00 | 0.00 | 38 | 1010.8 |
| 20260509225444 | 30 | 213 | 11.3 | 20.9 | 0.00 | 0.00 | 0.00 | 38 | 1010.8 |
| 20260509224943 | 30 | 255 | 11.3 | 24.1 | 0.00 | 0.00 | 0.00 | 37 | 1010.8 |
| 20260509224439 | 30 | 216 | 11.3 | 24.1 | 0.00 | 0.00 | 0.00 | 38 | 1010.9 |
| 20260509223938 | 30 | 242 | 12.9 | 24.1 | 0.00 | 0.00 | 0.00 | 39 | 1010.9 |
| 20260509223709 | 31 | 236 | 11.3 | 24.1 | 0.00 | 0.00 | 0.00 | 38 | 1010.9 |
| 20260509222938 | 31 | 232 | 9.7 | 19.3 | 0.00 | 0.00 | 0.00 | 39 | 1010.9 |
| 20260509222438 | 31 | 267 | 11.3 | 17.7 | 0.00 | 0.00 | 0.00 | 39 | 1011.0 |
| 20260509222209 | 31 | 267 | 11.3 | 19.3 | 0.00 | 0.00 | 0.00 | 37 | 1011.0 |
| 20260509221437 | 30 | 259 | 9.7 | 20.9 | 0.00 | 0.00 | 0.00 | 39 | 1011.1 |
| 20260509220934 | 30 | 222 | 9.7 | 20.9 | 0.00 | 0.00 | 0.00 | 39 | 1011.2 |
| 20260509220434 | 30 | 215 | 11.3 | 19.3 | 0.00 | 0.00 | 0.00 | 39 | 1011.2 |
| 20260509220201 | 30 | 262 | 12.9 | 20.9 | 0.00 | 0.00 | 0.00 | 41 | 1011.2 |
| 20260509215702 | 30 | 234 | 11.3 | 20.9 | 0.00 | 0.00 | 0.00 | 40 | 1011.3 |
| 20260509214930 | 30 | 222 | 11.3 | 20.9 | 0.00 | 0.00 | 0.00 | 40 | 1011.4 |
| 20260509214426 | 30 | 226 | 11.3 | 22.5 | 0.00 | 0.00 | 0.00 | 41 | 1011.4 |
| 20260509213926 | 30 | 225 | 11.3 | 22.5 | 0.00 | 0.00 | 0.00 | 41 | 1011.4 |
| 20260509213426 | 30 | 225 | 9.7 | 19.3 | 0.00 | 0.00 | 0.00 | 41 | 1011.4 |
| 20260509212924 | 30 | 217 | 11.3 | 19.3 | 0.00 | 0.00 | 0.00 | 42 | 1011.5 |
| 20260509212656 | 30 | 219 | 11.3 | 20.9 | 0.00 | 0.00 | 0.00 | 40 | 1011.6 |
| 20260509211925 | 30 | 232 | 9.7 | 20.9 | 0.00 | 0.00 | 0.00 | 40 | 1011.7 |
| 20260509211425 | 30 | 235 | 9.7 | 17.7 | 0.00 | 0.00 | 0.00 | 41 | 1011.8 |
| 20260509210922 | 30 | 249 | 8.0 | 17.7 | 0.00 | 0.00 | 0.00 | 39 | 1011.9 |
| 20260509210420 | 30 | 221 | 8.0 | 17.7 | 0.00 | 0.00 | 0.00 | 39 | 1011.9 |
| 20260509205921 | 30 | 227 | 8.0 | 14.5 | 0.00 | 0.00 | 0.00 | 39 | 1012.0 |
| 20260509205417 | 30 | 201 | 8.0 | 14.5 | 0.00 | 0.00 | 0.00 | 40 | 1012.0 |
| 20260509204918 | 30 | 225 | 8.0 | 14.5 | 0.00 | 0.00 | 0.00 | 40 | 1012.1 |
| 20260509204419 | 30 | 226 | 9.7 | 19.3 | 0.00 | 0.00 | 0.00 | 41 | 1012.1 |
| 20260509203413 | 30 | 221 | 8.0 | 17.7 | 0.00 | 0.00 | 0.00 | 42 | 1012.0 |
| 20260509203145 | 29 | 242 | 6.4 | 17.7 | 0.00 | 0.00 | 0.00 | 43 | 1012.1 |
| 20260509202410 | 29 | 221 | 8.0 | 14.5 | 0.00 | 0.00 | 0.00 | 41 | 1012.2 |
| 20260509201910 | 29 | 225 | 8.0 | 14.5 | 0.00 | 0.00 | 0.00 | 42 | 1012.2 |
| 20260509201409 | 30 | 232 | 6.4 | 16.1 | 0.00 | 0.00 | 0.00 | 38 | 1012.3 |
| 20260509200909 | 29 | 225 | 6.4 | 16.1 | 0.00 | 0.00 | 0.00 | 39 | 1012.3 |
| 20260509200637 | 29 | 202 | 6.4 | 11.3 | 0.00 | 0.00 | 0.00 | 39 | 1012.5 |
| 20260509195906 | 28 | 252 | 6.4 | 12.9 | 0.00 | 0.00 | 0.00 | 39 | 1012.5 |
| 20260509195404 | 28 | 247 | 6.4 | 12.9 | 0.00 | 0.00 | 0.00 | 40 | 1012.6 |
| 20260509194903 | 28 | 171 | 6.4 | 14.5 | 0.00 | 0.00 | 0.00 | 40 | 1012.7 |
| 20260509194405 | 28 | 226 | 6.4 | 14.5 | 0.00 | 0.00 | 0.00 | 39 | 1012.7 |
| 20260509193905 | 28 | 232 | 4.8 | 11.3 | 0.00 | 0.00 | 0.00 | 41 | 1012.8 |
| 20260509193403 | 28 | 224 | 4.8 | 11.3 | 0.00 | 0.00 | 0.00 | 42 | 1012.9 |
| 20260509192859 | 28 | 223 | 4.8 | 11.3 | 0.00 | 0.00 | 0.00 | 43 | 1012.9 |
| 20260509192358 | 27 | 213 | 4.8 | 11.3 | 0.00 | 0.00 | 0.00 | 45 | 1013.0 |
| 20260509191858 | 27 | 213 | 4.8 | 11.3 | 0.00 | 0.00 | 0.00 | 45 | 1013.0 |
| 20260509191358 | 27 | 213 | 6.4 | 12.9 | 0.00 | 0.00 | 0.00 | 45 | 1013.1 |
| 20260509190854 | 27 | 221 | 4.8 | 12.9 | 0.00 | 0.00 | 0.00 | 47 | 1013.1 |
| 20260509190355 | 27 | 232 | 6.4 | 14.5 | 0.00 | 0.00 | 0.00 | 47 | 1013.2 |
| 20260509185852 | 26 | 246 | 4.8 | 14.5 | 0.00 | 0.00 | 0.00 | 51 | 1013.2 |
| 20260509185352 | 26 | 234 | 6.4 | 12.9 | 0.00 | 0.00 | 0.00 | 50 | 1013.2 |
| 20260509184850 | 26 | 242 | 4.8 | 11.3 | 0.00 | 0.00 | 0.00 | 53 | 1013.3 |
| 20260509184351 | 25 | 240 | 6.4 | 11.3 | 0.00 | 0.00 | 0.00 | 54 | 1013.4 |
| 20260509183849 | 25 | 254 | 6.4 | 11.3 | 0.00 | 0.00 | 0.00 | 55 | 1013.5 |
| 20260509183348 | 25 | 234 | 6.4 | 11.3 | 0.00 | 0.00 | 0.00 | 56 | 1013.4 |